sat.trackr.live / text

‹ back to catalog

ONEWEB-0125

NORAD 47271 · 2020-100P

PAYLOAD ACTIVE UNKNOWN

§ Identity

Operator
Country
UK
Launch date
2020-12-18
Launch site
VOSTO
Launch vehicle
Mass (kg)
RCS (m²)

Purposes: comms

External: N2YO · Heavens-Above · Gunter

§ Orbital elements

Epoch: 2026-05-25T01:47:39.562080Z

Period
109.72 min
Inclination
87.8961°
Eccentricity
0.0002102
Mean motion
13.12443387 rev/d
Perigee alt
1,212.1 km
Apogee alt
1,215.3 km
Semi-major
7,591.9 km
B*
-1.0889e-3
RAAN
355.2504°
Arg perigee
85.9082°
Mean anomaly
274.2287°
Rev number
26,160

§ Raw data

ONEWEB-01251 47271U 20100P   26145.07476345 -.00000379  00000+0 -10889-2 0  99962 47271  87.8961 355.2504 0002102  85.9082 274.2287 13.12443387261606

JSON: /api/v1/satellites/47271 · /tle

For live sub-satellite position, see the globe view (requires WebGL).

§ Visibility from observer

Set your observer location to see the next 7 days of passes ≥ 10°. The values pass through the URL so the page stays shareable.

No JS? Fill the form by hand. The geolocation button needs JavaScript.